{"data":{"norad_id":47993,"intl_designator":"2021-024S","name":"STARLINK-2273","alt_names":[],"object_type":"PAYLOAD","status":"ACTIVE","operator":null,"country":"US","launch_date":"2021-03-24","launch_site_code":"AFETR","launch_vehicle":null,"mission":null,"orbit_class":"UNKNOWN","rcs_meters":null,"size_class":null,"mass_kg":null,"dimensions":null,"purposes":["comms"],"wikipedia_slug":null,"has_3d_model":false,"image_url":null,"decayed_at":null,"tle_current":{"epoch":"2026-05-25T02:44:37.948704Z","epoch_age_seconds":61610,"freshness":"FRESH","line1":"1 47993U 21024S   26145.11432811  .00066294  00000+0  13247-2 0  9995","line2":"2 47993  53.1525 295.5948 0002322 255.9220 104.1529 15.46216566286900","mean_motion":15.46216566,"eccentricity":0.0002322,"inclination_deg":53.1525,"raan_deg":295.5948,"arg_perigee_deg":255.922,"mean_anomaly_deg":104.1529,"bstar":0.0013247,"rev_number":28690,"period_min":93.130550510477,"perigee_km":426.2254378021,"apogee_km":429.38611762807,"semimajor_km":6805.9427777151,"source":"CELESTRAK","updated_at":"2026-05-25T13:38:16.638742Z"}}}